Wind_Speed
11 11 12 12 11 10 10 10 9 9 7 6 2 3 4 6 7 7 10 13 9 9 11 13 11 8 7 6 6 8 9 10 8 4 6 6 6 6 7 6 6 5 4
12 12 12 11 9 9 9 8 7 6 4 3 2 2 2 3 5 4 9 11 12 9 13 13 13 10 7 6 7 9 11 10 9 6 3 4 4 4 3 4 4 3 3
13 13 12 11 9 7 7 7 5 4 1 0 2 1 2 3 3 5 8 9 10 10 13 11 13 13 9 6 6 8 10 11 10 5 4 4 5 5 4 4 4 3 2
13 13 13 12 9 7 6 6 8 7 4 3 2 3 3 4 4 6 9 10 10 11 10 9 11 11 10 8 7 7 8 9 10 7 4 4 4 5 6 6 6 5 3
13 13 13 12 10 9 6 6 4 5 3 4 4 5 5 7 7 8 6 7 7 6 10 9 9 10 11 7 6 8 9 7 9 9 6 3 3 4 5 4 4 4 4
12 11 11 11 10 8 6 6 7 7 6 6 5 5 4 5 4 4 7 7 6 7 7 8 8 7 12 11 10 7 7 6 6 8 7 5 2 1 1 2 2 2 1
11 11 10 12 12 12 8 6 5 5 3 3 5 4 5 4 3 4 8 6 7 7 7 7 8 12 7 7 13 11 8 6 5 5 6 5 4 3 1 0 0 1 1
10 9 10 11 11 10 9 11 12 12 9 9 5 2 2 6 5 6 5 5 5 5 5 7 8 11 14 14 13 15 12 6 6 5 5 4 3 3 2 2 2 2 2
9 9 11 10 10 13 12 10 10 9 8 10 7 6 4 6 4 7 8 5 5 6 6 5 9 11 11 13 10 12 10 7 6 6 6 6 5 4 2 2 2 2 3
9 10 11 11 11 11 11 11 16 12 9 12 10 7 8 8 7 3 3 10 7 8 7 7 10 11 10 9 9 11 11 6 5 5 8 8 6 5 5 5 4 3 3
12 11 12 11 12 13 11 11 10 12 15 15 14 14 11 10 10 9 4 7 7 7 9 8 9 11 11 13 13 10 11 6 6 6 7 9 7 6 5 4 4 5 5
15 14 13 13 13 12 13 14 13 13 13 13 15 13 14 14 12 12 13 12 10 8 11 8 8 8 10 11 11 10 9 5 6 5 4 6 6 4 6 7 7 6 5
16 15 15 14 14 13 14 14 14 15 16 16 15 15 16 15 16 16 15 16 17 14 13 9 9 10 10 10 10 9 8 9 9 6 5 5 6 6 6 7 5 5 6
16 17 16 15 15 15 15 15 14 15 16 15 16 15 16 15 15 15 16 14 15 12 10 13 11 11 12 11 9 9 10 12 10 8 6 7 9 10 9 8 8 8 8
19 18 18 17 16 16 16 15 16 18 18 17 16 16 17 17 16 16 14 14 13 12 10 11 11 15 15 14 13 13 12 10 10 10 8 9 9 10 11 11 10 11 11
21 21 19 17 17 17 19 19 18 19 19 19 20 20 18 18 17 19 19 16 15 15 14 10 12 16 16 16 17 16 15 14 13 12 12 11 11 11 11 12 12 12 12
20 22 21 21 20 20 20 21 21 22 23 21 22 22 22 21 21 21 23 22 19 19 18 16 16 20 17 18 20 18 18 16 16 16 14 14 14 11 12 12 12 12 12
19 20 21 21 21 22 22 22 22 22 24 25 24 24 24 24 26 25 26 25 23 23 24 22 21 19 20 20 19 21 21 19 19 18 17 15 15 15 16 15 14 14 14
19 19 19 19 20 21 22 22 22 24 26 27 28 29 30 29 29 29 28 27 27 27 26 26 26 25 22 23 22 22 22 22 21 20 19 21 21 21 19 17 16 16 15
19 19 19 19 20 21 22 23 25 26 26 30 33 32 31 31 30 31 30 32 30 29 29 28 28 27 26 24 23 21 22 23 24 23 22 22 23 23 21 20 18 17 17
21 19 21 21 23 24 26 28 27 30 29 31 28 34 34 34 33 32 32 32 33 32 31 31 30 29 26 26 24 22 24 24 26 26 24 22 23 23 23 23 21 20 19
25 24 24 25 24 25 26 24 26 28 30 32 32 31 36 37 40 34 33 35 35 35 34 33 32 31 30 28 27 26 25 26 27 26 27 26 26 25 27 27 24 23 22
24 24 25 23 23 25 25 27 29 31 35 36 37 37 35 34 35 39 39 40 41 38 37 34 34 32 31 30 30 30 29 28 29 30 30 30 28 28 29 30 29 26 25
24 26 26 24 25 28 28 31 34 37 39 38 37 36 37 36 36 39 39 39 41 41 40 39 38 34 31 30 31 31 32 32 32 31 32 31 30 31 32 31 32 32 29
26 25 24 25 27 32 32 35 38 41 39 34 33 33 35 37 39 41 43 43 39 43 42 41 39 38 34 32 30 30 33 35 35 35 36 35 34 33 34 34 37 39 32
21 23 25 29 31 35 36 38 39 38 36 36 38 41 42 43 42 44 47 46 44 40 38 39 40 36 34 34 34 34 36 36 39 40 39 39 39 34 36 38 35 53 42
Wind_Direction
176 176 176 170 166 165 175 168 170 159 151 149 95 41 20 39 36 50 45 25 24 35 32 21 24 24 24 28 38 43 37 40 48 107 149 161 177 193 201 201 209 217 234
177 181 179 175 175 172 182 177 185 177 169 188 242 303 23 41 24 26 17 15 24 33 21 19 25 26 23 36 42 42 37 34 41 49 82 118 138 145 173 186 199 204 210
178 181 183 180 186 186 185 197 206 186 165 76 351 286 317 322 338 341 337 345 353 356 6 22 22 25 24 32 41 33 33 38 41 71 95 125 139 134 140 156 156 147 146
181 182 189 193 197 203 214 232 233 228 257 303 304 318 316 323 316 335 330 326 331 345 24 33 30 29 31 19 9 16 30 44 48 53 89 104 126 130 143 144 132 123 110
184 189 196 201 200 208 225 233 232 229 262 267 333 303 305 305 306 337 358 353 355 8 23 22 16 6 47 36 36 12 22 33 44 50 55 97 130 129 134 135 137 137 140
187 196 203 204 208 212 238 237 251 248 260 267 271 272 304 343 322 359 359 16 11 10 22 24 10 7 45 44 36 21 25 24 30 41 50 56 62 95 121 123 114 99 55
192 197 207 209 217 226 237 262 264 243 270 268 15 286 305 344 26 347 9 20 52 55 33 20 11 11 1 38 35 18 12 14 24 27 28 37 47 42 24 1 292 271 258
213 211 217 216 214 223 247 254 256 257 273 269 272 298 262 331 333 320 345 354 0 28 25 356 359 343 348 21 25 16 12 5 0 16 23 28 36 30 14 0 336 312 308
224 225 217 214 223 242 258 255 250 244 236 286 267 261 242 231 324 303 328 340 332 346 343 357 342 351 340 0 9 12 4 13 16 5 7 6 14 19 21 3 329 309 292
226 224 220 226 240 243 260 262 251 259 260 276 288 275 255 270 277 263 324 320 6 337 322 334 325 329 324 326 350 344 346 333 350 357 358 359 351 357 354 347 340 321 283
233 225 231 241 245 247 260 263 265 251 272 279 275 270 271 276 280 270 254 264 320 311 315 329 307 312 313 304 312 324 330 314 319 334 349 358 1 357 352 337 322 312 305
231 229 232 242 246 250 254 258 262 266 271 279 281 282 271 268 273 277 276 277 277 300 297 311 305 306 307 314 307 312 314 316 315 309 322 352 2 356 354 344 338 328 310
234 229 234 238 243 251 261 265 265 267 273 275 277 281 285 278 278 278 278 279 277 278 286 288 277 291 295 302 312 307 308 315 311 315 293 320 342 340 341 342 335 321 313
237 238 230 236 242 244 249 257 263 266 267 270 273 275 276 277 277 282 286 285 283 281 281 282 270 279 279 286 292 294 297 315 307 306 297 315 333 332 326 330 335 329 324
242 250 242 235 238 246 247 253 255 261 265 267 268 271 271 275 278 279 280 283 284 282 268 278 274 274 274 281 283 290 288 305 305 296 281 297 314 318 321 319 322 323 325
239 242 241 239 242 249 252 258 266 268 271 275 273 272 271 276 280 280 277 276 275 276 271 257 268 259 269 275 280 284 284 288 291 293 284 281 292 305 310 314 314 315 318
234 236 239 242 246 250 258 261 265 270 273 275 273 272 271 272 272 278 280 276 271 270 270 265 269 264 270 273 282 282 280 284 285 284 284 276 280 291 305 308 303 307 305
231 234 237 245 251 256 262 268 271 275 273 271 269 266 269 272 272 272 274 274 277 271 270 268 264 270 270 270 272 277 279 281 282 286 282 269 278 287 295 298 298 298 294
235 239 243 249 253 257 263 268 269 272 273 273 269 268 271 272 271 273 272 272 275 273 269 268 268 268 267 270 269 273 274 277 280 283 284 277 273 278 282 289 291 293 294
239 241 244 250 256 261 265 269 273 274 280 278 272 270 269 271 273 274 268 269 269 271 273 271 271 271 271 268 274 273 272 270 273 279 286 286 279 278 278 282 285 285 289
243 246 252 256 262 265 269 265 276 276 285 284 284 270 275 274 270 269 268 269 270 270 269 270 271 271 267 273 274 275 274 272 270 276 280 283 284 274 274 278 283 284 286
253 254 258 258 265 261 272 273 277 278 280 283 282 280 274 279 261 264 265 268 267 266 267 268 271 272 274 274 273 273 272 274 275 275 277 277 279 274 273 278 276 278 278
245 253 254 256 262 267 271 275 276 280 283 283 282 280 279 278 262 260 260 271 261 262 265 266 265 266 272 275 272 272 274 275 274 273 275 279 278 275 273 275 272 273 271
250 248 254 258 267 273 276 279 282 284 283 282 280 279 276 272 265 265 267 270 256 256 260 264 266 268 269 268 272 272 273 271 272 278 277 278 277 275 274 272 267 268 266
253 256 258 266 274 281 285 287 287 286 284 282 280 281 282 279 272 263 260 259 261 256 260 260 260 263 263 269 268 269 274 276 275 273 274 273 271 270 269 267 265 253 264
255 262 271 277 284 288 289 288 287 283 281 282 285 286 283 278 271 264 257 256 255 257 258 258 252 253 256 262 270 273 273 272 274 269 269 269 270 269 269 267 261 267 256
Height
3224 3226 3227 3230 3232 3234 3235 3237 3238 3240 3240 3241 3241 3240 3239 3239 3238 3237 3236 3233 3231 3230 3228 3225 3224 3221 3220 3219 3218 3215 3213 3211 3211 3211 3212 3212 3212 3212 3212 3211 3211 3212 3212
3224 3226 3228 3230 3233 3234 3235 3237 3239 3240 3241 3241 3240 3240 3240 3240 3238 3237 3236 3234 3233 3231 3228 3226 3224 3222 3221 3219 3218 3217 3215 3212 3210 3209 3210 3210 3210 3211 3211 3211 3211 3212 3212
3224 3226 3229 3231 3233 3235 3236 3238 3239 3240 3240 3241 3240 3240 3240 3240 3239 3237 3236 3235 3233 3232 3229 3227 3225 3223 3221 3220 3219 3218 3216 3214 3212 3211 3211 3211 3211 3211 3211 3212 3212 3211 3211
3224 3226 3229 3231 3233 3235 3236 3237 3238 3239 3241 3242 3241 3241 3240 3239 3239 3238 3236 3235 3233 3232 3231 3229 3227 3225 3222 3221 3220 3219 3218 3217 3215 3213 3212 3212 3212 3212 3212 3212 3211 3211 3211
3223 3226 3228 3230 3233 3234 3236 3237 3238 3238 3241 3241 3242 3242 3240 3239 3238 3238 3237 3235 3233 3232 3231 3230 3228 3225 3222 3222 3221 3219 3218 3217 3216 3215 3214 3214 3213 3213 3213 3213 3212 3211 3211
3223 3225 3227 3230 3232 3234 3235 3236 3237 3238 3238 3239 3241 3242 3240 3238 3238 3238 3237 3236 3234 3233 3231 3230 3228 3224 3223 3222 3221 3220 3218 3217 3217 3216 3215 3215 3215 3214 3214 3213 3212 3212 3211
3223 3225 3227 3229 3231 3233 3234 3236 3237 3237 3239 3237 3239 3243 3242 3239 3238 3237 3236 3236 3235 3234 3233 3231 3229 3226 3223 3223 3222 3221 3219 3218 3218 3218 3217 3216 3215 3215 3214 3213 3213 3213 3212
3222 3224 3226 3228 3229 3231 3233 3234 3235 3236 3237 3236 3237 3240 3240 3241 3240 3237 3236 3235 3235 3235 3234 3232 3230 3228 3225 3224 3222 3221 3220 3219 3219 3218 3218 3217 3215 3214 3213 3213 3212 3212 3212
3221 3222 3224 3226 3228 3230 3231 3232 3233 3234 3236 3235 3235 3236 3237 3240 3239 3240 3236 3235 3235 3234 3233 3232 3230 3229 3227 3225 3223 3222 3221 3220 3219 3218 3217 3216 3215 3214 3213 3212 3211 3211 3210
3219 3221 3223 3225 3226 3228 3229 3229 3230 3232 3232 3233 3233 3235 3234 3235 3235 3237 3239 3237 3236 3235 3231 3231 3229 3228 3227 3226 3225 3223 3222 3221 3220 3219 3217 3215 3214 3213 3212 3211 3210 3210 3209
3218 3219 3220 3222 3223 3225 3226 3227 3227 3229 3230 3230 3230 3231 3232 3233 3232 3233 3234 3238 3236 3235 3233 3231 3227 3226 3225 3224 3223 3223 3221 3220 3219 3218 3217 3216 3214 3212 3211 3210 3209 3208 3208
3214 3216 3218 3219 3220 3222 3223 3224 3224 3225 3226 3227 3227 3227 3229 3230 3230 3231 3231 3231 3232 3233 3231 3229 3227 3224 3223 3222 3221 3221 3220 3219 3219 3217 3217 3216 3214 3213 3211 3209 3208 3207 3207
3211 3212 3214 3215 3217 3218 3219 3220 3221 3222 3223 3223 3224 3224 3225 3226 3226 3227 3227 3228 3228 3227 3227 3226 3225 3222 3221 3220 3219 3218 3217 3217 3216 3215 3215 3214 3213 3211 3210 3209 3208 3207 3205
3208 3208 3210 3211 3212 3214 3215 3216 3217 3218 3219 3219 3219 3220 3221 3221 3222 3222 3222 3223 3223 3224 3225 3222 3223 3220 3219 3218 3217 3216 3214 3214 3213 3213 3212 3212 3210 3209 3208 3207 3206 3205 3205
3204 3205 3206 3207 3209 3210 3212 3213 3214 3214 3215 3215 3215 3216 3216 3217 3217 3217 3217 3218 3219 3219 3221 3222 3219 3217 3217 3215 3214 3214 3214 3212 3211 3210 3210 3210 3209 3207 3206 3205 3205 3204 3202
3199 3201 3203 3204 3206 3208 3209 3210 3211 3212 3212 3213 3212 3212 3213 3213 3213 3213 3213 3213 3214 3214 3215 3217 3216 3214 3212 3212 3211 3210 3210 3209 3209 3209 3208 3208 3207 3207 3205 3204 3203 3202 3201
3195 3197 3199 3201 3202 3203 3204 3206 3207 3207 3207 3208 3208 3208 3209 3209 3209 3209 3208 3208 3208 3209 3210 3211 3210 3210 3208 3208 3207 3206 3206 3206 3205 3205 3205 3205 3205 3204 3203 3202 3201 3199 3198
3192 3193 3195 3197 3198 3199 3200 3201 3201 3202 3202 3202 3203 3202 3202 3203 3202 3204 3204 3204 3203 3203 3204 3205 3205 3205 3203 3203 3203 3203 3202 3202 3201 3201 3201 3201 3200 3200 3199 3198 3197 3195 3194
3189 3190 3191 3193 3194 3195 3195 3195 3195 3195 3195 3196 3196 3196 3196 3196 3197 3197 3196 3197 3197 3196 3196 3197 3198 3198 3198 3197 3198 3198 3197 3197 3197 3196 3196 3195 3195 3195 3194 3193 3192 3191 3190
3186 3187 3187 3188 3189 3190 3190 3190 3190 3189 3189 3189 3189 3189 3189 3189 3189 3190 3190 3190 3191 3191 3190 3190 3190 3191 3191 3192 3191 3192 3192 3191 3191 3191 3190 3190 3189 3189 3188 3188 3188 3187 3186
3183 3183 3184 3184 3185 3185 3184 3184 3184 3183 3182 3181 3180 3181 3181 3182 3181 3181 3182 3182 3182 3183 3183 3183 3183 3184 3185 3185 3186 3186 3185 3185 3185 3185 3185 3184 3183 3183 3183 3182 3182 3182 3180
3179 3180 3180 3179 3179 3178 3178 3179 3178 3177 3176 3175 3173 3173 3172 3171 3171 3173 3173 3173 3174 3174 3175 3176 3176 3176 3178 3179 3180 3179 3179 3179 3178 3179 3178 3178 3178 3177 3177 3176 3176 3175 3174
3173 3174 3174 3174 3174 3173 3173 3172 3171 3170 3168 3166 3164 3163 3162 3161 3160 3162 3163 3164 3163 3164 3165 3167 3168 3169 3170 3172 3173 3171 3172 3172 3172 3171 3171 3170 3171 3170 3169 3168 3168 3167 3167
3167 3168 3169 3169 3168 3167 3167 3165 3163 3160 3157 3155 3153 3151 3150 3151 3151 3151 3151 3151 3152 3154 3155 3157 3159 3161 3162 3163 3164 3164 3164 3163 3163 3164 3163 3162 3163 3161 3161 3161 3160 3159 3159
3161 3162 3162 3162 3161 3159 3158 3155 3153 3149 3145 3143 3141 3140 3139 3139 3139 3139 3137 3138 3139 3142 3145 3147 3149 3151 3153 3154 3155 3155 3154 3153 3154 3154 3153 3154 3153 3153 3152 3152 3150 3147 3148
3156 3156 3156 3155 3153 3150 3148 3144 3141 3138 3134 3132 3130 3128 3126 3124 3124 3123 3123 3125 3126 3130 3134 3136 3138 3140 3142 3144 3146 3146 3146 3145 3143 3141 3141 3142 3142 3143 3142 3142 3139 3137 3135